Regional Weather Roundup
Issued by NWS

Home | Current Version | Previous Version | Graphics & Text | Print | Product List | Glossary Off
Versions: 1 2 3 4 5 6 7 8 9 10 11 12 13 14 15 16 17 18 19 20 21 22 23 24 25 26 27 28 29 30 31 32 33 34 35 36 37 38 39 40 41 42 43 44 45 46 47 48 49 50

000
ASUS43 KTOP 011208
RWRKS

WEATHER ROUNDUP FOR KANSAS
NATIONAL WEATHER SERVICE GOODLAND KS
700 AM CDT WED JUL 01 2015

NOTE:  "FAIR" INDICATES FEW OR NO CLOUDS BELOW 12,000 FEET WITH NO
SIGNIFICANT WEATHER AND/OR OBSTRUCTIONS TO VISIBILITY.

KSZ001>006-013>018-027>032-041>047-011300-
NORTHWEST KANSAS

CITY           SKY/WX    TMP DP  RH WIND       PRES   REMARKS
GOODLAND       MOCLDY    70  55  59 NW10      29.96R
6HR MIN TEMP:  67; 6HR MAX TEMP:  78;

HAYS           MOCLDY    79  54  41 W8        29.79S
HILL CITY      MOCLDY    76  53  44 W8        29.79S
6HR MIN TEMP:  75; 6HR MAX TEMP:  84;

RUSSELL        PTCLDY    78  57  48 SW13      29.77F
6HR MIN TEMP:  76; 6HR MAX TEMP:  83;

$$

KSZ061>065-074>080-084>089-011300-
SOUTHWEST KANSAS

CITY           SKY/WX    TMP DP  RH WIND       PRES   REMARKS
DODGE CITY     MOCLDY    72  55  55 SW15      29.89F
6HR MIN TEMP:  72; 6HR MAX TEMP:  75;

ELKHART          N/A     71  50  47 SW12        N/A
GARDEN CITY    MOCLDY    70  55  59 SW7       29.89F
6HR MIN TEMP:  68; 6HR MAX TEMP:  76;

GREAT BEND     MOCLDY    75  57  53 SW15      29.81F
LIBERAL        PTCLDY    66  54  63 SW12      29.97R
PRATT          MOCLDY    72  57  60 SW15      29.87S
$$

KSZ066>073-081>083-090>101-011300-
SOUTHEAST KANSAS

CITY           SKY/WX    TMP DP  RH WIND       PRES   REMARKS
CHANUTE        CLOUDY    78  69  73 CALM      29.88R
6HR MIN TEMP:  77; 6HR MAX TEMP:  80;

COFFEYVILLE    PTCLDY    76  72  87 S8        29.86F
6HR MIN TEMP:  76; 6HR MAX TEMP:  81;

HUTCHINSON     CLOUDY    78  61  55 SW13      29.84R
6HR MIN TEMP:  77; 6HR MAX TEMP:  84;

MEDICINE LODGE   N/A     74  62  66 SW10      29.87R
NEWTON         MOCLDY    75  61  60 SW15      29.86S
PARSONS        MOCLDY    78  72  81 S5        29.88R
6HR MIN TEMP:  77; 6HR MAX TEMP:  80;

WICHITA INTL   MOCLDY    74  64  71 S8        29.85S
6HR MIN TEMP:  73; 6HR MAX TEMP:  82;

WICHITA JABRA  MOCLDY    77  63  61 SW15      29.85R
6HR MIN TEMP:  76; 6HR MAX TEMP:  83;

WICHITA MCCONL MOCLDY    75  64  69 S14       29.86R
WINFIELD       MOCLDY    76  67  73 SW10      29.88S
6HR MIN TEMP:  76; 6HR MAX TEMP:  81;

$$

KSZ007>012-019>026-033>040-048>060-102>105-011300-
NORTHEAST KANSAS

CITY           SKY/WX    TMP DP  RH WIND       PRES   REMARKS
CONCORDIA      MOCLDY    73  66  78 SE12      29.76F
6HR MIN TEMP:  71; 6HR MAX TEMP:  75;

EMPORIA        CLOUDY    77  65  66 SE5       29.87R
6HR MIN TEMP:  76; 6HR MAX TEMP:  81;

LAWRENCE       CLOUDY    69  66  90 SE16      29.88F FOG
6HR MIN TEMP:  69; 6HR MAX TEMP:  76; 6HR PCP:  0.05;

MANHATTAN      MOCLDY    73  68  84 E7        29.81F
6HR MIN TEMP:  71; 6HR MAX TEMP:  78;

MARYSVILLE     MOCLDY    70  64  83 SE14G20   29.80F
OLATHE IND     CLOUDY    68  66  93 E13       29.91S
6HR MIN TEMP:  68; 6HR MAX TEMP:  77; 6HR PCP:  0.03;

OLATHE EXE     CLOUDY    67  66  97 SE12      29.90F
6HR MIN TEMP:  67; 6HR MAX TEMP:  77; 6HR PCP:  0.08;

SALINA         MOCLDY    79  62  56 S8        29.80F
6HR MIN TEMP:  78; 6HR MAX TEMP:  84;

TOPEKA BILLARD LGT RAIN  70  68  93 SE13      29.87S FOG
6HR MIN TEMP:  70; 6HR MAX TEMP:  76; 6HR PCP: TRACE;

TOPEKA FORBES  MOCLDY    71  66  84 SE12G21   29.87R
6HR MIN TEMP:  71; 6HR MAX TEMP:  79; 6HR PCP: TRACE;

$$



USA.gov is the U.S. government's official web portal to all federal, state and local government web resources and services.